Home   Weather   West Covina   Past weeks

Flag for USA Past Weather in West Covina, California, USA — Yesterday and Last 2 Weeks

Now
93 °F

Sunny.


Feels Like: 89 °F
Forecast: 72 / 94 °F
Wind: 3 mph from Southwest

Location: Fullerton Municipal Airport

Current Time: Sep 26, 2016 at 7:09:21 PM

Latest Report: Sep 26, 2016 at 5:53 PM


Visibility: 10 mi

Pressure: 29.83 "Hg

Humidity: 13%

Dew Point: 36 °F

Location of West CovinaLocation

Past Weather in West Covina — Graph

°F

West Covina Temperature Yesterday

Maximum temperature yesterday: 101 °F (at 2:53 PM)
Minimum temperature yesterday: 61 °F (at 6:53 AM)
Average temperature yesterday: 80 °F

High & Low Weather Summary for the Past Weeks

 TemperatureHumidityPressure
High106 °F (Sep 26, 1:53 PM)94% (Sep 19, 5:00 AM)30.06 "Hg (Sep 19, 5:00 AM)
Low58 °F (Sep 15, 6:53 AM)6% (Sep 25, 2:53 PM)29.80 "Hg (Sep 21, 4:53 PM)
Average73 °F56%29.92 "Hg
* Reported Sep 11 5:53 PM — Sep 26 5:53 PM, West Covina, Weather by CustomWeather, © 2016

Note: Actual official high and low records may vary slightly from our data, if they occured in-between our weather recording intervals... More about our weather records

Advertising

West Covina Weather History for the Previous 24 Hours

Scroll right to see more
 ConditionsComfort  
Time TempWeatherWind HumidityBarometerVisibility
5:53 PM
Mon, Sep 26
93 °FSunny.3 mph13%29.83 "Hg10 mi
4:53 PM97 °FSunny.9 mph10%29.82 "Hg10 mi
3:53 PM100 °FSunny.10 mph8%29.83 "Hg10 mi
2:53 PM104 °FSunny.13 mph7%29.82 "Hg10 mi
1:53 PM106 °FSunny.7 mph6%29.83 "Hg10 mi
12:53 PM105 °FPassing clouds.7 mph6%29.87 "Hg10 mi
11:53 AM104 °FPassing clouds.9 mph7%29.89 "Hg10 mi
10:53 AM101 °FPassing clouds.6 mph9%29.90 "Hg10 mi
9:53 AM95 °FSunny.3 mph14%29.92 "Hg10 mi
8:53 AM86 °FPassing clouds.No wind20%29.92 "Hg10 mi
7:53 AM74 °FPassing clouds.3 mph31%29.92 "Hg10 mi
6:53 AM67 °FPassing clouds.3 mph41%29.91 "Hg10 mi
5:53 AM67 °FClear.No wind47%29.90 "Hg10 mi
4:53 AM68 °FClear.No wind45%29.89 "Hg10 mi
3:53 AM68 °FClear.No wind45%29.89 "Hg10 mi
2:53 AM71 °FClear.3 mph36%29.90 "Hg10 mi
1:53 AM72 °FClear.No wind35%29.92 "Hg10 mi
12:53 AM73 °FClear.No wind34%29.92 "Hg10 mi
11:53 PM
Sun, Sep 25
73 °FClear.No wind34%29.92 "Hg10 mi
10:53 PM77 °FClear.3 mph29%29.92 "Hg10 mi
9:53 PM77 °FClear.No wind28%29.92 "Hg10 mi
8:53 PM80 °FClear.No wind24%29.90 "Hg10 mi
7:53 PM84 °FClear.No wind19%29.89 "Hg10 mi
Weather by CustomWeather, © 2016

See weather overviewHow to use our weather pages